sat.trackr.live / text

‹ back to catalog

STARLINK-35175

NORAD 65929 · 2025-225V

PAYLOAD ACTIVE UNKNOWN

§ Identity

Operator
Country
US
Launch date
2025-10-08
Launch site
AFWTR
Launch vehicle
Mass (kg)
RCS (m²)

Purposes: comms

External: N2YO · Heavens-Above · Gunter

§ Orbital elements

Epoch: 2026-05-24T11:44:35.637504Z

Period
94.11 min
Inclination
53.1585°
Eccentricity
0.0001080
Mean motion
15.30192161 rev/d
Perigee alt
474.5 km
Apogee alt
476.0 km
Semi-major
6,853.4 km
B*
7.1270e-4
RAAN
173.5764°
Arg perigee
70.1581°
Mean anomaly
289.9536°
Rev number
3,601

§ Raw data

STARLINK-351751 65929U 25225V   26144.48930136  .00020803  00000+0  71270-3 0  99902 65929  53.1585 173.5764 0001080  70.1581 289.9536 15.30192161 36015

JSON: /api/v1/satellites/65929 · /tle

For live sub-satellite position, see the globe view (requires WebGL).

§ Visibility from observer

Set your observer location to see the next 7 days of passes ≥ 10°. The values pass through the URL so the page stays shareable.

No JS? Fill the form by hand. The geolocation button needs JavaScript.